Location: Dampvalley
(47.9094°N, 6.1967°E)
Time: 21:02:36
(UTC+00:00)

Lacrosse 5 - Pass Details

Date: 05 March 2021
Orbit: 718 x 721 km, 57.0° (Epoch: 02 April)

Event Time Altitude Azimuth Distance (km) Brightness Sun altitude
Exits shadow 04:23:57 21° 308° (NW) 1,604 3.3 -18.2°
Maximum altitude 04:27:27 86° 36° (NE) 726 1.8 -17.7°
Drops below altitude 10° 04:32:31 10° 126° (SE) 2,198 5.0 -16.8°
Sets 04:34:53 0° 127° (SE) 3,115 5.8 -16.4°
